Location: Hains Lake
(37.8540°N, 99.8578°W)
Time: 23:03:28
(UTC+00:00)

deb Explorer IX - Pass Details

Date: 26 April 2021
Orbit: 541 x 1098 km, 38.8° (Epoch: 13 May)

Event Time Altitude Azimuth Distance (km) Brightness Sun altitude
Rises 12:01:35 0° 259° (W) 2,702 ? 1.5°
Reaches altitude 10° 12:03:50 10° 259° (W) 1,795 ? 1.9°
Maximum altitude 12:07:53 90° 52° (NE) 547 ? 2.7°
Drops below altitude 10° 12:12:05 10° 80° (E) 1,862 ? 3.5°
Sets 12:14:27 0° 81° (E) 2,812 ? 4.0°
